Terug naar catalogus

THOR ABLESTAR DEB

ActiefPO
NORAD 1099·DEBRIS·🇺🇸 United States

Gelanceerd Dec 13, 1964 vanaf Vandenberg Space Force Base

Loading…

Volgende Passages (komende 24 uur)

TLE

VersSource: Space-Track

Epoch: Sep 14, 2026, 15:17 UTC

1 01099U 64083G   26257.63685419  .00000148  00000-0  17604-3 0  9998
2 01099  89.8035 136.2515 0040057  22.0551   6.1572 13.62867324994597

Volg THOR ABLESTAR DEB in realtime met AllMySat

Download on the App Store